Location: Corcelles
(46.1547°N, 4.7234°E)
Time: 04:10:13
(UTC+00:00)

Cosmos 1954 Rocket - Pass Details

Date: 14 July 2020
Orbit: 751 x 782 km, 74.0° (Epoch: 06 August)

Event Time Altitude Azimuth Distance (km) Brightness Sun altitude
Exits shadow 02:08:19 23° 203° (SSW) 1,594 5.0 -15.1°
Maximum altitude 02:11:40 85° 291° (WNW) 784 4.0 -14.7°
Drops below altitude 10° 02:17:00 10° 21° (NNE) 2,341 7.8 -14.2°
Sets 02:19:25 0° 22° (NNE) 3,276 8.9 -13.9°
